Weather History for KCHA - July, 2014

Change the Weather History Date:

Sunday, July 6, 2014

  Actual Average Record
Temperature  
Mean Temperature 76 °F 80 °F  
Max Temperature 89 °F 90 °F 100 °F (2012)
Min Temperature 63 °F 69 °F 52 °F (1972)
Degree Days  
Heating Degree Days 0 0  
Month to date heating degree days 0 0  
Since 1 June heating degree days 0 2  
Since 1 July heating degree days 0 0  
Cooling Degree Days 11 15  
Month to date cooling degree days 79 86  
Year to date cooling degree days 738 627  
Since 1 June cooling degree days 480 431  
Growing Degree Days 26 (Base 50)    
Moisture  
Dew Point 62 °F    
Average Humidity 65    
Maximum Humidity 93    
Minimum Humidity 36    
Precipitation  
Precipitation 0.00 in 0.15 in 2.85 in (1967)
Month to date precipitation 0.00 0.93  
Year to date precipitation 22.28 27.80  
Snow  
Snow 0.00 in 0.00 in - ()
Month to date snowfall 0.0 0.0  
Since 1 June snowfall 0.0 0.0  
Since 1 July snowfall 0.0 0.0  
Snow Depth 0.00 in    
Sea Level Pressure  
Sea Level Pressure 30.10 in    
Wind  
Wind Speed 2 mph (SSE)    
Max Wind Speed 10 mph    
Max Gust Speed 16 mph    
Visibility 9 miles    
Events Fog    
T = Trace of Precipitation, MM = Missing Value Source: NWS Daily Summary

Daily Weather History Graph

Daily Weather History Graph

Search for Another Location

Airport or City:

Trip Planner

Search our weather history database for the weather conditions in past years. The results will help you decide how hot, cold, wet, or windy it might be!

Date:

Astronomy

Jul. 06, 2014 Rise Set
Actual Time 6:32 AM EDT 8:58 PM EDT
Civil Twilight 6:03 AM EDT 9:27 PM EDT
Nautical Twilight 5:27 AM EDT 10:03 PM EDT
Astronomical Twilight 4:47 AM EDT 10:43 PM EDT
Moon 3:05 PM EDT (7/6) 1:42 AM EDT (7/6)
Length of Visible Light 15h 24m
Length of Day
14h 25m
Waxing Gibbous, 62% of the Moon is Illuminated
Jul 6
Waxing Gibbous
Jul 12
Full
Jul 18
Last Quarter
Jul 26
New
Aug 3
First Quarter

Hourly Weather History & Observations

Time (EDT) Temp. Heat Index Dew Point Humidity Pressure Visibility Wind Dir Wind Speed Gust Speed Precip Events Conditions
12:53 AM 71.1 °F - 61.0 °F 70% 30.16 in 9.0 mi Calm Calm - N/A   Clear
1:53 AM 68.0 °F - 62.1 °F 81% 30.14 in 8.0 mi Calm Calm - N/A   Clear
2:53 AM 66.0 °F - 61.0 °F 84% 30.14 in 7.0 mi Calm Calm - N/A   Clear
3:53 AM 66.0 °F - 61.0 °F 84% 30.12 in 9.0 mi Calm Calm - N/A   Clear
4:53 AM 64.9 °F - 61.0 °F 87% 30.12 in 8.0 mi Calm Calm - N/A   Clear
5:53 AM 64.0 °F - 60.1 °F 87% 30.13 in 9.0 mi Calm Calm - N/A   Scattered Clouds
6:53 AM 63.0 °F - 60.1 °F 90% 30.14 in 7.0 mi Calm Calm - N/A Fog Patches of Fog
7:53 AM 66.9 °F - 61.0 °F 81% 30.16 in 8.0 mi Calm Calm - N/A   Mostly Cloudy
8:02 AM 68.0 °F - 61.0 °F 78% 30.18 in 9.0 mi Calm Calm - N/A   Mostly Cloudy
8:32 AM 71.1 °F - 62.1 °F 73% 30.18 in 10.0 mi Calm Calm - N/A   Mostly Cloudy
8:53 AM 73.0 °F - 62.1 °F 68% 30.16 in 10.0 mi Calm Calm - N/A   Scattered Clouds
9:53 AM 75.9 °F - 64.0 °F 67% 30.15 in 10.0 mi South 8.1 mph - N/A   Scattered Clouds
10:53 AM 78.1 °F - 64.9 °F 64% 30.15 in 10.0 mi SSE 6.9 mph - N/A   Scattered Clouds
11:53 AM 81.0 °F 82.7 °F 64.9 °F 58% 30.14 in 10.0 mi Calm Calm - N/A   Mostly Cloudy
12:53 PM 82.9 °F 84.4 °F 64.0 °F 53% 30.12 in 10.0 mi East 4.6 mph - N/A   Mostly Cloudy
1:53 PM 82.0 °F 83.4 °F 64.0 °F 54% 30.11 in 10.0 mi South 4.6 mph - N/A   Mostly Cloudy
2:53 PM 86.0 °F 86.1 °F 61.0 °F 43% 30.09 in 10.0 mi ESE 4.6 mph - N/A   Mostly Cloudy
3:53 PM 87.8 °F 87.6 °F 60.8 °F 40% 30.09 in 10.0 mi SE 10.4 mph - N/A   Mostly Cloudy
4:53 PM 88.0 °F 86.7 °F 57.0 °F 35% 30.04 in 10.0 mi Calm Calm - N/A   Mostly Cloudy
5:53 PM 87.1 °F 86.5 °F 59.0 °F 39% 30.03 in 10.0 mi SE 4.6 mph - N/A   Scattered Clouds
6:53 PM 86.0 °F 84.9 °F 57.0 °F 37% 30.01 in 10.0 mi South 4.6 mph - N/A   Partly Cloudy
7:53 PM 84.9 °F 84.4 °F 59.0 °F 41% 30.01 in 10.0 mi South 4.6 mph - N/A   Partly Cloudy
8:53 PM 82.9 °F 83.7 °F 62.1 °F 49% 30.02 in 10.0 mi SSE 3.5 mph - N/A   Scattered Clouds
9:53 PM 81.0 °F 82.2 °F 63.0 °F 54% 30.03 in 10.0 mi Calm Calm - N/A   Partly Cloudy
10:53 PM 78.1 °F - 64.0 °F 62% 30.04 in 10.0 mi Calm Calm - N/A   Partly Cloudy
11:53 PM 73.0 °F - 64.9 °F 76% 30.04 in 10.0 mi Calm Calm - N/A   Partly Cloudy